map of DAB home
DAB - Airport
Location
City:  Daytona Beach, Florida, United States
Name:Daytona Beach International Airport
ICAO:KDAB
IATA:DAB
FAA LID:DAB

Details
Type:Airport (Part 139 Class I)
Use:Public/Civil
Latitude:2910'48"N (29.179917)
Longitude:8103'29"W (-81.058055)
Datum:WGS 1984
Elevation:34 ft (10 m)
Variation:6.75W (WMM2015 magnetic declination)
-0.09 annual change
Runways:3
Longest:10500 × 150 ft (3200 × 45.5 m), paved

Time
Time Zone:UTC-5 (DST-4)
Local Time:

Weather
METAR:KDAB 210653Z 28003KT 10SM CLR 14/14 A3014 RMK AO2 SLP204 T01440139
TAF:KDAB 210538Z 2106/2206 34005KT P6SM SKC
FM211700 01009KT P6SM FEW030
FM220200 35005KT P6SM FEW030 BKN250

Related Locations
Nearby:
Farthest:USL: 11536 mi / 18565 km
Useless Loop, WA, AU

Find:

   beyond  
but within

Other Information
Maps:
Delays:
NOTAMs:
Links:
Sources:

  
  • flag of United States
  • flag of Florida
  

Airport Diagram

Airport diagram for DAB

Airport diagram PDF

Sectional Chart

Flight Planning
at skyvector.com

Satellite Image

Google Maps Satellite view

 

Copyright © 2004-2018 Karl L. Swartz. All rights reserved.
The Great Circle Mapper name and logo are trademarks of the Great Circle Mapper.
All other trademarks mentioned herein belong to their respective owners.
Please see credits for attibutions and further copyright information.

  Follow gcmap on Facebook Follow gcmap on Twitter Follow gcmap on Google+ GCmap on LinkedIn

hCard Microformat

Geo Microformat